Wind_Speed
22 23 24 25 25 25 25 26 27 27 28 29 29 29 30 30 30 29 29 29 30 31 31 33 33 33 34 36 37 38 38 39 40 40 41 41 42 43 44 45 45 46 46 46 46 47 47 48 48 49 49 50 50 49 49 49 49 49 50 50 51 52 53 53 54 53 53 51 51 52 52 51 51 52 52 50 47 44 43 43 43 44 45 45 45
28 28 28 29 30 29 29 28 28 29 31 33 33 33 34 34 33 33 34 35 36 36 37 37 37 38 39 40 40 39 40 40 41 42 42 43 44 44 45 46 46 46 46 47 47 47 47 47 48 48 49 49 49 49 49 49 50 51 52 52 53 54 54 54 53 53 52 51 50 50 50 50 50 50 50 49 47 44 43 43 44 45 46 46 47
33 35 34 34 34 35 35 35 34 35 38 38 38 37 36 35 35 35 37 38 39 39 40 40 41 41 41 42 41 41 41 41 42 43 43 44 44 45 46 46 46 47 46 46 46 46 47 47 47 48 48 49 49 50 50 51 52 53 54 55 55 56 56 55 54 53 53 52 51 50 50 50 50 49 47 46 46 45 44 45 45 46 47 48 48
30 37 39 39 39 38 36 35 35 37 38 39 39 37 35 34 34 35 36 37 37 38 39 40 40 41 41 41 41 41 42 43 43 44 44 45 45 45 46 46 47 48 48 48 48 48 48 49 49 49 49 50 50 51 51 52 53 54 55 56 56 57 57 57 56 55 55 54 53 52 50 49 49 48 47 46 45 45 45 46 47 48 48 49 49
24 29 32 33 33 33 34 34 34 35 35 35 35 35 34 34 35 37 38 39 40 41 42 43 42 42 41 42 43 43 44 44 44 44 44 45 45 46 46 47 48 49 49 50 50 50 51 51 51 51 51 51 51 51 52 53 53 54 55 56 57 57 57 57 57 56 56 55 55 53 51 49 48 48 48 47 47 46 45 46 47 49 50 50 50
26 28 29 27 26 27 29 33 36 38 39 40 39 38 38 38 40 42 44 45 45 45 46 46 46 45 43 43 44 44 45 46 46 46 46 46 46 46 47 48 49 50 50 51 51 51 51 51 52 51 51 51 51 52 53 53 54 54 55 56 57 57 56 56 56 56 55 55 54 53 52 51 50 49 49 50 49 48 47 47 47 49 50 50 50
30 32 32 29 30 32 34 35 38 40 42 43 43 43 45 45 47 48 48 48 48 49 49 48 48 48 47 46 46 45 46 47 47 47 46 46 47 48 49 50 51 52 52 52 53 53 53 53 53 53 53 53 53 54 55 55 56 56 56 57 57 57 56 55 55 55 54 54 54 54 54 53 53 52 51 51 50 49 49 48 49 49 50 49 50
34 37 37 33 34 38 39 40 42 44 44 43 42 42 43 45 48 50 50 50 49 48 47 47 47 47 46 46 45 46 47 47 47 47 47 48 49 50 51 52 52 53 53 54 54 54 55 55 55 56 56 56 56 56 56 57 57 57 58 57 57 57 56 55 54 54 54 55 56 56 56 55 55 54 53 52 52 51 50 50 50 50 50 50 51
39 41 43 41 39 39 40 42 44 47 48 47 45 44 44 45 47 48 47 46 45 44 44 45 46 46 45 45 46 47 47 47 47 48 48 49 51 52 53 54 54 55 55 56 56 56 56 56 57 57 57 57 57 57 58 58 59 60 60 59 58 57 56 56 56 56 57 58 57 56 56 54 54 54 54 54 53 52 51 51 51 51 51 52 53
45 46 48 48 45 42 41 41 43 46 48 49 49 49 50 49 48 45 42 43 44 45 45 47 47 47 47 48 49 49 50 50 50 49 50 53 56 57 57 57 57 58 59 59 59 59 59 59 59 59 59 59 58 59 59 60 61 61 61 60 59 59 59 59 60 60 59 58 57 56 55 54 54 54 54 54 54 53 52 52 51 52 52 53 53
50 50 52 53 52 48 45 43 42 44 48 50 52 53 52 51 48 45 44 46 49 50 50 50 51 52 52 52 52 52 53 54 55 57 59 61 64 65 64 64 64 64 64 63 62 62 61 62 61 61 61 60 60 60 60 61 61 61 61 61 61 62 62 62 62 61 60 58 58 57 56 56 55 54 53 53 53 52 52 52 53 54 54 54 54
53 52 53 54 54 52 52 50 47 46 47 48 51 52 52 51 50 49 50 52 53 54 55 55 56 57 57 56 56 57 59 61 63 65 67 69 69 69 68 68 68 68 68 66 65 65 65 65 64 64 63 63 62 62 62 62 62 61 61 62 63 64 63 63 63 62 61 60 59 59 59 58 56 55 53 53 53 53 53 54 55 55 55 55 55
54 55 55 56 54 52 53 54 53 52 51 51 51 53 54 54 53 54 56 55 54 55 58 58 57 58 59 60 63 66 68 69 70 71 72 72 72 70 69 69 70 70 70 69 68 67 67 67 67 67 67 66 65 64 64 63 63 63 63 64 65 64 64 65 65 64 64 63 62 61 61 60 59 58 57 56 56 55 55 56 57 57 57 57 57
56 57 58 58 57 55 55 54 55 57 57 57 56 57 57 56 55 57 58 57 56 58 60 61 61 63 65 67 70 72 72 73 73 74 74 73 72 70 69 69 69 69 69 69 68 68 68 68 68 69 69 68 68 67 66 65 64 64 64 65 65 65 66 66 66 66 66 66 65 65 64 63 63 63 62 62 61 60 60 61 61 62 62 61 61
62 62 62 63 62 62 61 60 59 60 62 63 62 61 60 60 60 62 64 64 65 66 68 69 70 71 72 73 74 74 74 74 74 74 74 73 71 70 69 69 69 69 69 69 68 69 69 69 69 70 69 69 70 69 67 65 65 64 66 66 66 66 66 65 65 65 66 67 67 68 67 66 67 68 68 68 67 67 67 67 67 67 67 66 64
67 67 68 69 69 69 68 67 65 64 65 66 66 66 66 65 66 68 70 72 74 75 76 77 77 77 77 77 76 76 76 75 74 73 73 72 71 70 70 70 69 69 69 69 69 69 69 69 70 71 70 70 71 70 69 68 66 64 65 66 67 66 66 65 65 65 67 68 68 69 68 68 70 71 72 72 72 72 72 71 71 70 70 68 67
72 72 73 74 75 74 73 73 73 70 67 66 67 69 70 71 73 75 77 79 81 81 81 81 80 80 79 78 77 76 76 75 73 72 72 72 71 71 71 71 70 70 71 71 71 70 70 71 71 71 71 71 71 70 68 67 65 62 62 63 65 65 66 66 66 67 69 72 72 71 71 71 72 73 74 75 75 73 72 72 71 70 69 68 67
76 77 78 78 79 78 77 77 77 76 73 71 71 73 75 77 79 81 82 82 83 82 82 81 81 79 78 77 76 75 75 73 72 72 72 72 72 73 73 73 73 73 73 73 72 71 71 70 70 69 68 67 66 65 63 62 63 63 62 62 63 65 67 68 67 67 70 72 72 72 72 72 71 72 74 75 74 72 70 68 67 65 64 63 62
79 81 82 83 84 83 82 81 81 80 80 79 79 81 84 85 86 86 86 85 84 83 82 81 80 79 78 77 76 75 74 74 73 73 73 73 73 73 73 73 73 73 73 72 72 70 69 69 68 68 67 64 64 65 64 63 65 66 66 65 65 66 68 68 67 67 69 69 69 69 69 69 69 69 70 70 71 70 68 65 62 60 59 59 59
80 82 83 85 87 88 87 87 87 86 85 85 86 87 89 90 91 91 91 89 88 85 83 81 80 80 79 78 76 75 74 74 74 73 73 73 73 72 71 71 71 71 71 71 70 69 69 68 68 68 68 67 67 68 67 66 67 68 67 67 67 67 68 68 68 68 69 69 68 68 67 67 67 67 68 68 68 69 69 66 63 60 59 58 58
80 82 83 85 87 88 89 90 91 91 90 90 91 92 93 94 94 94 93 92 89 86 84 82 81 80 79 78 76 75 74 73 73 72 72 71 71 71 70 69 70 71 71 70 70 70 70 70 70 69 69 69 69 69 69 68 68 68 69 69 69 70 70 70 69 69 69 69 69 69 68 68 68 68 68 68 68 70 71 70 67 64 61 60 60
79 81 82 83 85 86 88 89 91 93 94 94 94 95 95 95 95 94 93 90 88 86 84 82 81 80 78 77 75 74 73 72 72 72 72 72 72 72 72 72 72 72 72 72 72 72 73 73 73 73 73 72 71 71 71 71 70 70 71 72 72 73 73 73 73 72 71 70 71 70 70 69 69 69 70 69 70 71 74 74 71 66 63 63 63
81 81 82 83 84 85 86 88 89 91 93 94 95 96 96 95 94 93 91 89 86 84 82 80 79 77 76 75 75 74 74 73 73 73 74 74 75 76 76 76 76 76 75 74 74 75 75 76 76 77 77 76 75 74 75 75 74 74 75 76 76 76 77 78 78 77 75 74 73 73 72 71 71 71 72 72 73 74 76 77 74 69 67 67 67
81 81 81 82 83 83 84 85 86 87 88 90 91 92 92 92 92 91 90 87 85 83 81 79 78 77 76 76 76 76 76 76 77 77 78 78 79 79 80 80 80 80 79 78 78 78 78 79 79 80 80 79 79 78 78 79 79 78 78 79 79 80 81 83 83 81 80 78 77 76 76 75 74 74 74 75 76 78 79 78 76 73 72 72 71
79 79 80 80 81 82 83 83 84 85 85 86 87 87 87 87 87 87 86 85 84 83 82 81 80 80 79 79 79 79 80 80 81 82 82 83 83 83 83 84 84 84 84 82 82 82 82 82 82 82 83 82 82 82 82 82 82 82 81 82 83 84 85 86 86 85 84 83 82 80 79 78 77 77 77 78 80 81 81 80 79 78 77 76 75
77 78 78 79 79 80 81 82 82 83 83 84 84 84 85 85 85 85 85 85 85 85 84 84 84 83 83 83 83 83 85 85 86 87 88 88 87 87 87 87 87 88 87 87 86 86 86 86 86 86 86 85 84 84 84 85 84 84 84 84 85 86 86 87 87 86 86 86 85 84 82 81 80 80 80 81 82 83 82 82 82 82 81 80 79
77 77 77 78 78 79 80 80 81 82 82 83 84 84 85 86 86 86 87 87 87 87 88 88 88 87 87 87 88 88 89 90 91 92 92 92 92 92 91 90 91 91 90 90 90 90 90 89 89 88 88 87 86 85 85 86 86 85 86 86 86 87 87 87 87 87 87 87 87 86 85 83 82 82 82 83 84 85 84 84 84 84 84 83 81
79 79 79 79 80 80 81 81 82 83 84 84 85 86 87 87 88 89 90 90 90 91 91 91 91 92 91 92 92 92 93 94 95 95 95 96 96 96 95 94 94 94 94 94 93 93 93 92 91 90 89 88 87 86 85 86 86 86 87 88 88 88 88 87 87 87 87 86 86 85 85 84 84 83 84 85 86 87 87 87 86 86 85 85 84
82 82 82 83 83 84 84 84 85 86 86 87 88 88 89 90 91 91 92 93 93 93 94 94 95 95 95 95 95 95 95 96 98 98 98 99 99 100 99 98 98 98 97 97 96 94 94 93 92 90 89 87 86 85 85 86 87 88 88 89 90 90 89 88 86 85 84 84 83 83 83 83 83 84 85 86 87 88 89 88 88 87 86 86 85
84 85 85 86 86 86 87 87 87 88 88 89 90 91 92 93 93 94 95 95 96 96 96 96 97 97 98 98 98 97 98 99 100 101 101 101 101 101 100 98 97 97 97 96 94 92 91 91 90 89 87 86 84 84 85 86 87 88 89 90 92 91 89 86 84 82 80 80 80 79 79 80 81 82 83 84 86 87 88 88 87 87 86 85 84
87 87 87 88 88 88 89 89 89 90 90 91 92 93 94 95 96 96 97 97 98 99 99 99 99 100 100 100 101 101 101 101 102 102 102 102 101 100 98 96 94 94 94 93 92 90 89 88 88 87 86 85 83 83 84 86 87 89 91 92 93 91 88 84 81 78 77 77 76 76 77 77 78 80 81 82 83 85 86 86 85 85 84 83 82
89 89 89 90 90 90 91 91 92 92 93 94 94 95 96 98 99 100 99 99 100 101 102 102 102 102 102 102 103 103 103 103 102 101 100 99 99 98 96 93 91 90 90 90 89 87 86 85 85 84 84 83 82 82 82 83 85 89 92 93 92 90 88 85 82 79 76 75 75 76 76 77 77 78 79 80 80 81 82 83 82 82 81 80 79
90 91 91 92 92 92 93 94 94 95 96 96 97 98 98 100 101 102 103 102 102 102 103 104 104 103 103 102 101 101 101 101 100 98 96 94 93 93 91 89 87 86 85 85 84 83 82 82 81 81 80 80 80 80 80 80 83 87 89 90 91 89 87 85 83 79 75 74 74 76 77 77 77 77 77 77 77 77 78 79 78 78 77 77 77
91 92 92 93 93 94 94 95 96 96 97 98 98 99 100 100 101 102 103 103 103 102 101 101 101 101 100 99 98 97 96 95 94 92 91 89 88 86 85 83 82 80 80 79 79 79 78 77 77 77 77 77 76 77 78 79 80 82 84 86 88 87 85 82 79 74 70 70 72 75 77 76 74 74 74 74 73 74 74 74 74 74 74 74 74
90 91 91 92 92 93 93 94 95 95 96 97 97 98 98 98 98 99 99 100 101 100 99 98 97 96 96 95 94 93 92 91 89 87 85 84 83 81 80 78 76 75 75 74 74 74 74 73 73 73 73 73 73 73 74 75 76 78 80 82 83 83 82 79 75 70 67 68 71 73 73 71 69 69 70 70 68 66 65 65 66 68 69 70 70
88 88 88 88 89 89 90 91 91 92 92 93 94 94 94 94 95 95 95 96 96 96 96 95 94 93 92 91 91 90 89 87 86 84 81 79 78 77 76 75 72 71 70 70 69 69 69 69 69 68 68 68 68 69 71 71 72 74 76 78 79 78 77 74 71 69 68 69 71 70 69 67 66 65 65 64 61 59 57 57 59 60 62 63 65
88 87 86 86 86 86 86 86 87 87 87 88 88 88 88 88 89 89 89 90 90 90 91 91 90 89 88 87 86 85 85 84 83 81 79 77 74 73 72 71 69 68 67 66 65 66 66 66 65 65 65 65 65 66 67 68 69 71 72 74 75 74 72 69 67 66 68 69 69 67 66 65 63 60 58 57 56 55 53 53 53 54 56 57 58
85 85 84 84 83 82 82 82 82 82 82 82 83 82 82 82 83 83 83 84 84 85 85 86 86 86 85 84 82 81 81 80 79 77 75 73 71 70 69 68 67 65 64 63 63 63 63 64 63 62 62 62 64 65 66 66 67 68 70 71 71 70 68 66 64 64 67 68 66 64 63 61 57 53 51 50 50 50 49 49 48 49 50 52 54
80 80 79 79 79 78 78 78 78 78 78 78 78 78 78 78 78 79 79 79 80 80 80 81 81 81 81 80 79 78 76 75 74 72 70 68 67 66 65 64 63 63 62 61 60 61 61 62 62 61 60 60 63 65 65 65 65 66 67 67 68 67 67 65 64 64 65 65 62 60 58 55 52 50 48 46 46 46 46 45 45 46 47 50 51
75 75 75 75 74 74 74 74 74 74 74 74 74 74 74 74 74 74 75 75 75 75 75 75 75 75 75 75 74 73 72 70 68 66 65 63 62 61 61 60 60 60 59 59 59 59 60 60 60 59 59 59 61 64 64 64 64 63 64 64 65 65 64 64 63 63 63 61 58 55 53 50 49 48 46 44 44 44 43 43 44 45 47 48 48
70 70 70 70 70 70 70 70 70 70 69 69 69 70 70 70 70 70 71 71 71 70 70 70 70 70 70 69 69 68 67 65 63 61 59 59 58 58 58 57 57 56 56 56 57 58 58 59 59 58 58 57 59 61 63 63 62 61 61 62 62 62 61 61 61 61 60 57 54 53 50 46 44 43 41 40 40 41 41 43 44 45 46 46 45
65 65 65 65 65 65 66 66 66 66 65 65 65 65 66 66 66 66 66 66 66 66 65 65 65 65 64 64 63 62 62 61 59 57 55 55 55 56 56 55 54 52 52 53 54 54 55 56 56 56 56 55 56 58 60 60 59 58 58 58 58 58 58 58 58 58 56 54 53 52 48 44 41 39 37 35 36 38 40 42 44 45 46 44 42
60 60 60 61 61 61 62 62 62 62 62 62 61 62 62 62 62 62 62 62 62 61 61 61 61 60 60 59 59 58 58 57 55 53 52 52 51 51 52 53 51 49 49 50 51 51 52 53 53 53 53 53 53 55 57 58 56 55 54 54 54 54 54 54 54 54 53 51 50 49 46 43 40 37 35 34 35 37 40 42 44 45 45 42 40
57 57 57 57 57 57 58 58 58 58 58 58 58 58 58 58 58 58 58 58 58 58 58 57 57 56 56 55 55 55 54 53 51 50 49 48 48 47 47 48 48 46 46 46 47 48 48 50 50 51 51 51 52 54 55 54 53 51 51 51 51 51 50 50 51 51 50 48 47 46 44 42 39 36 34 35 36 38 40 42 45 46 44 42 40
53 53 54 54 54 55 55 55 55 55 55 55 55 55 55 55 55 54 54 54 54 54 54 54 53 53 52 52 52 51 50 49 48 46 45 44 44 43 42 43 44 43 42 42 43 44 44 45 47 48 48 49 50 51 52 51 49 48 48 48 48 48 48 47 47 47 46 46 45 43 41 39 37 35 34 35 36 38 41 43 45 45 44 41 40
51 51 51 51 52 52 52 52 53 53 53 52 52 52 52 52 51 51 51 51 51 51 51 50 50 49 49 49 48 48 46 45 44 42 41 40 40 39 39 39 39 40 39 38 39 39 40 41 43 44 45 46 46 47 47 47 47 46 46 46 47 46 46 45 45 44 44 43 42 40 38 37 36 35 34 35 37 39 42 43 45 45 43 41 40
49 49 49 49 50 50 50 50 50 50 50 50 49 49 49 48 48 48 48 48 48 48 47 47 46 46 46 46 45 44 43 42 40 39 38 38 37 36 36 36 36 36 36 36 36 36 37 38 39 40 41 42 42 42 43 44 45 45 45 45 45 45 45 44 43 42 42 41 40 38 37 36 36 35 35 36 38 40 42 44 46 45 43 41 40
47 47 47 47 47 47 47 47 48 48 48 47 47 46 46 45 45 45 45 45 45 45 44 44 43 43 43 43 43 41 40 38 37 36 36 36 35 34 33 33 34 34 34 34 34 34 35 36 37 37 38 39 39 40 41 43 44 44 44 44 43 43 43 42 41 41 40 41 40 39 37 37 37 36 36 36 38 41 43 45 46 45 43 42 40
44 45 45 45 45 45 45 45 45 45 45 45 44 44 43 43 42 42 42 43 43 42 42 41 41 41 41 41 40 39 37 36 36 35 34 34 34 33 32 31 31 32 32 32 33 33 34 35 36 36 37 38 38 39 40 41 42 43 43 42 41 41 41 41 41 41 40 40 40 39 38 38 38 37 37 38 40 42 45 46 47 46 44 42 40
42 43 43 43 43 43 43 43 43 43 43 43 42 42 41 41 41 41 41 41 41 41 40 40 39 39 39 38 38 37 36 35 35 34 33 32 31 31 30 29 29 29 30 31 31 32 33 34 35 35 35 35 36 36 37 38 39 41 41 40 39 39 40 40 40 40 40 39 39 39 38 38 38 38 39 40 42 45 47 48 48 47 45 43 40
41 42 42 42 42 42 42 42 41 41 41 41 40 40 40 40 40 40 40 40 40 40 39 39 38 38 38 37 36 36 35 34 33 33 31 30 29 29 28 28 27 27 28 29 29 30 31 32 33 34 34 34 34 34 35 36 37 38 38 38 37 37 37 38 39 39 38 38 38 38 38 38 38 39 40 42 45 46 48 49 48 47 45 43 40
Wind_Direction
269 271 266 259 257 256 254 254 254 253 253 257 262 266 270 272 273 274 276 278 279 278 278 279 280 280 282 285 287 287 286 284 281 278 277 275 275 274 274 275 275 274 274 274 274 274 274 275 275 275 276 276 277 278 278 279 280 280 281 281 282 283 284 286 287 287 286 286 286 286 287 288 288 288 288 288 286 285 284 283 282 282 282 282 282
266 271 271 267 264 263 262 262 263 264 264 265 267 271 273 273 272 272 274 278 280 279 278 278 279 280 282 285 286 286 284 282 280 279 277 276 276 275 275 275 275 275 275 275 275 275 276 276 277 277 278 279 280 280 281 282 283 284 284 284 285 286 287 287 287 286 286 285 286 286 286 285 285 286 286 285 285 285 284 284 283 282 282 282 282
267 269 271 271 270 269 269 269 268 268 269 270 270 271 271 271 272 273 275 278 279 278 277 278 280 281 283 284 284 283 282 280 280 279 278 277 277 276 276 276 276 276 276 276 276 276 277 277 278 278 279 280 281 282 282 283 284 285 285 286 287 287 288 287 286 285 285 284 284 285 284 285 285 284 283 283 283 284 285 284 283 283 283 283 283
264 271 274 273 272 271 270 269 267 267 268 268 267 266 267 269 273 275 276 277 277 278 279 281 283 284 285 285 284 283 282 281 281 280 280 279 279 279 279 279 280 280 280 280 280 280 280 280 280 280 281 281 282 282 283 283 284 285 286 287 287 287 287 286 285 285 284 284 284 284 284 285 285 285 284 283 282 283 284 284 284 284 284 284 285
246 262 270 271 266 264 265 263 263 265 265 262 262 265 267 270 272 274 275 277 278 280 282 284 286 287 287 287 287 286 285 284 283 282 281 281 281 281 281 281 281 281 281 282 281 281 281 281 282 282 282 282 282 282 282 283 284 285 287 287 288 287 286 285 285 284 284 285 285 286 286 286 285 285 285 285 284 284 284 284 284 285 286 286 287
225 240 252 258 252 249 255 257 256 259 260 259 261 264 268 271 273 274 275 277 279 282 284 286 287 288 288 289 290 289 286 284 283 282 281 281 281 281 282 282 282 281 281 281 281 281 281 281 281 281 281 281 281 281 282 282 284 286 288 288 288 287 286 285 284 284 285 285 286 287 288 287 287 287 287 286 286 285 285 285 285 285 286 287 288
222 232 240 247 244 240 244 250 254 258 260 259 260 262 265 268 270 272 272 273 277 281 282 284 285 287 288 290 290 289 285 283 282 280 280 281 281 281 282 282 282 282 282 282 281 281 281 281 281 281 281 282 282 283 283 285 286 288 289 289 288 287 286 285 284 284 285 285 286 287 288 288 288 287 287 287 286 286 286 286 286 287 287 288 289
225 230 233 238 243 243 246 253 258 260 261 260 260 261 262 263 266 268 269 272 277 280 280 281 284 285 286 288 287 284 280 279 280 280 280 280 281 282 282 282 282 282 282 282 282 282 282 283 283 284 284 284 285 285 286 287 289 289 289 289 288 287 285 284 283 283 284 286 287 288 288 288 288 288 288 287 287 287 287 287 288 288 288 289 290
230 231 233 237 242 247 251 257 260 260 260 261 262 262 263 265 267 269 271 274 276 276 276 278 281 281 281 282 283 281 278 277 277 278 280 282 283 283 282 282 281 280 280 280 281 281 282 283 284 285 285 286 286 286 287 287 288 288 288 288 287 286 284 283 282 283 285 287 288 288 287 287 287 288 287 287 287 287 287 287 288 288 288 289 290
234 234 235 237 242 247 251 255 258 258 259 262 264 265 267 268 269 272 276 277 276 275 274 274 277 278 278 278 280 280 280 279 278 278 280 284 286 286 284 282 281 280 280 279 280 280 282 283 284 285 285 285 286 286 285 286 286 286 286 286 285 285 284 284 284 285 286 287 287 287 287 287 288 287 286 286 286 286 286 286 287 288 288 289 290
234 234 235 236 240 245 248 251 255 259 260 262 264 265 267 267 269 273 280 282 281 280 279 276 277 279 279 278 278 277 278 278 279 279 281 284 286 286 284 283 282 281 281 280 279 280 281 282 283 284 285 285 285 285 285 285 285 285 285 284 284 285 285 286 286 287 287 287 287 287 287 287 288 288 287 286 286 286 285 285 287 288 288 288 289
235 235 235 237 242 246 248 249 253 258 260 261 263 263 264 265 269 275 282 285 284 283 282 280 279 280 280 279 278 278 278 279 280 281 282 284 286 285 284 283 283 282 282 281 280 280 280 281 281 282 283 283 283 283 283 284 284 284 284 284 284 285 286 286 286 287 287 287 287 287 286 286 287 286 286 285 285 284 284 285 286 287 288 289 290
239 239 239 239 243 246 248 248 251 253 254 256 260 261 261 262 268 277 284 285 282 280 280 281 279 278 278 278 279 281 281 282 282 282 283 285 285 284 283 283 282 282 283 282 282 281 281 280 280 280 281 281 281 281 281 282 282 283 283 283 283 284 285 285 285 286 286 287 287 287 286 287 287 287 287 286 286 285 285 286 287 289 290 290 292
239 241 241 242 243 245 247 249 252 253 253 254 257 258 258 260 266 275 282 282 280 279 279 279 279 278 278 279 281 282 283 283 283 283 284 284 284 284 283 282 282 282 283 283 283 283 282 282 282 281 281 281 281 281 281 282 282 282 282 281 282 282 283 284 285 286 286 288 288 288 288 289 290 290 290 290 289 290 290 290 290 291 292 293 293
237 241 242 244 245 247 248 250 253 256 255 255 257 258 257 259 265 272 276 279 280 280 280 280 281 281 281 282 283 283 283 283 283 283 284 284 284 284 284 283 283 283 283 283 284 284 284 284 284 284 285 285 285 285 285 285 285 284 283 282 282 282 283 284 285 285 285 286 287 287 289 291 291 291 290 290 290 291 292 292 292 292 292 293 293
235 239 242 245 246 248 250 253 255 258 257 256 257 258 258 259 264 270 274 277 279 280 281 282 282 282 282 283 283 283 283 283 283 283 283 283 284 284 283 283 283 283 284 284 284 285 285 285 286 286 287 287 288 288 288 288 287 286 285 285 285 285 285 286 285 284 283 283 283 285 287 288 288 288 288 288 289 289 290 291 291 291 291 291 292
236 239 242 245 247 248 250 253 255 258 259 257 258 260 261 263 266 270 274 276 278 280 281 282 282 282 282 282 282 282 282 282 283 283 283 283 283 283 283 283 283 284 284 284 284 285 285 285 286 286 287 287 287 288 288 287 286 285 284 284 284 285 285 285 284 282 282 282 284 284 285 285 284 284 285 286 286 287 288 288 288 288 288 288 288
236 239 242 244 247 248 250 253 255 258 259 259 259 261 264 267 271 273 275 277 278 279 280 280 281 281 281 281 281 281 281 281 281 281 281 282 282 282 283 284 284 284 284 284 284 284 284 284 284 284 285 285 285 284 284 284 283 283 282 281 281 282 282 282 281 281 280 282 284 284 284 283 283 282 282 283 285 286 285 285 284 284 284 284 284
238 240 242 244 246 248 249 252 255 258 260 262 263 264 266 268 271 274 276 277 278 279 279 279 279 279 279 279 280 280 280 280 280 280 280 281 281 282 283 283 284 284 284 284 285 285 285 284 284 284 283 282 281 280 280 280 280 280 281 280 280 280 280 281 281 281 281 282 283 283 283 283 283 282 282 283 284 284 284 283 282 282 282 282 282
241 242 244 245 247 248 249 251 253 256 259 262 265 267 269 270 272 274 275 276 278 278 279 279 279 279 279 279 279 279 280 280 280 280 280 281 281 281 282 282 282 282 282 283 283 283 283 283 282 282 282 281 280 280 280 279 279 280 281 280 280 279 279 280 280 280 281 282 282 282 282 282 282 282 282 282 283 283 284 284 283 282 282 283 283
245 245 246 247 249 250 251 253 254 256 259 262 265 267 270 271 273 273 274 275 276 276 277 277 277 278 278 278 278 278 278 278 279 279 280 280 280 280 280 279 279 279 279 280 280 281 281 281 281 280 280 280 280 280 280 280 281 281 281 281 280 279 279 279 278 278 279 279 280 280 280 280 281 281 281 281 282 283 283 284 283 283 284 285 284
251 251 251 251 253 254 255 256 257 258 260 261 264 266 268 270 272 273 273 274 274 275 275 276 276 277 277 278 278 278 278 278 279 279 280 280 280 279 279 278 277 277 277 278 279 279 280 280 280 280 279 279 279 280 280 280 280 281 281 280 279 279 279 278 277 277 276 277 277 278 278 279 279 280 280 280 281 281 281 282 283 284 285 284 282
255 256 257 257 258 259 260 261 261 261 262 262 263 265 266 268 270 271 272 273 273 274 274 275 276 276 277 278 278 279 279 279 279 280 280 280 280 279 279 279 278 278 278 278 279 279 279 280 280 280 280 280 280 280 280 280 280 280 280 280 279 279 279 278 277 276 276 276 276 277 277 278 278 278 279 280 280 279 280 281 283 284 283 282 281
258 258 259 260 260 261 262 263 263 264 264 265 266 267 268 269 270 271 271 272 272 273 273 274 275 275 276 277 277 278 278 278 278 278 278 278 278 278 278 278 278 278 278 278 278 279 279 279 279 280 280 280 280 280 279 279 279 278 278 277 277 277 276 276 276 276 276 276 276 276 276 276 276 277 277 278 278 278 279 280 282 282 281 281 282
259 260 260 260 261 261 262 263 264 265 266 267 268 269 270 271 272 273 273 274 274 274 275 275 275 275 276 276 276 277 277 277 277 276 276 276 275 276 276 276 277 277 277 277 277 277 277 278 278 278 278 278 278 278 277 277 276 276 275 274 273 273 273 273 274 275 275 275 275 275 275 275 275 275 276 276 276 277 279 280 281 281 281 281 282
260 260 261 261 262 263 264 265 265 266 267 268 269 270 271 272 273 273 274 275 275 276 276 276 276 277 277 276 276 277 277 277 276 276 276 275 275 275 275 275 276 276 276 277 277 277 278 278 278 278 278 278 278 277 276 276 275 274 273 272 271 271 270 271 271 271 272 272 273 273 273 273 273 274 274 275 275 277 278 279 279 280 281 281 282
262 262 262 262 263 264 265 265 266 267 268 269 270 271 271 272 273 273 274 274 275 275 275 276 276 276 276 276 276 276 276 276 276 277 277 277 277 277 277 277 277 277 277 278 278 279 279 279 279 279 278 278 277 277 276 275 274 274 273 271 270 269 269 268 268 269 269 270 270 271 271 271 271 272 272 272 273 275 276 277 278 279 280 281 282
264 264 264 265 265 266 266 267 267 268 268 269 270 270 271 271 271 272 272 273 273 273 274 274 274 274 275 275 275 275 276 276 277 277 278 278 278 278 279 279 279 279 279 280 280 280 280 279 279 279 278 278 277 277 276 276 275 274 273 272 271 270 269 268 268 268 268 269 269 270 270 270 270 270 270 271 272 273 274 275 276 277 279 280 281
264 265 265 266 266 266 267 267 267 267 267 268 268 268 269 269 269 270 271 271 272 272 273 273 274 274 274 274 275 275 276 276 276 276 277 277 277 277 278 278 278 279 279 279 278 278 278 278 278 277 277 276 276 276 276 276 275 275 274 274 272 271 270 269 269 269 269 269 269 270 270 270 270 269 269 270 271 272 273 274 275 276 278 279 280
264 265 265 265 266 266 266 266 267 267 267 268 268 268 268 268 269 269 270 271 271 271 272 272 273 273 274 274 274 274 274 274 275 275 275 275 276 276 276 276 277 277 277 277 277 277 277 277 277 276 276 276 276 276 276 275 275 276 275 274 273 272 272 271 271 271 271 271 271 271 271 270 270 270 270 270 270 271 273 274 275 276 277 278 280
265 265 265 266 266 266 266 267 267 267 268 268 269 269 270 270 270 270 271 271 272 272 273 273 273 274 274 275 275 275 275 275 275 275 276 276 277 277 277 277 277 277 278 278 277 277 277 277 276 276 276 275 275 275 275 275 276 276 275 274 274 274 274 275 274 273 273 273 273 273 272 271 271 271 270 270 271 272 273 274 276 277 278 279 280
265 266 266 266 267 267 268 268 268 269 269 269 270 270 271 272 272 272 271 272 272 273 274 274 274 274 274 275 275 275 276 276 276 276 276 277 277 278 278 278 278 277 277 277 277 276 276 275 275 275 274 274 273 273 273 273 274 274 274 274 274 275 276 276 276 276 275 275 275 275 274 273 272 271 271 270 271 272 273 274 275 277 278 279 279
266 267 267 268 268 269 269 269 270 270 270 270 270 271 271 271 272 272 272 272 272 272 273 273 274 274 274 274 275 275 276 276 276 277 277 277 277 277 278 278 277 277 276 276 276 275 274 274 273 273 273 272 272 271 271 270 270 270 272 273 274 274 275 275 275 275 276 276 276 275 274 273 272 271 271 272 272 272 273 274 275 276 277 278 279
267 268 268 268 269 269 269 270 270 270 270 270 270 271 271 271 271 272 273 273 273 273 273 273 274 275 275 276 276 276 276 277 277 278 278 278 278 277 277 277 277 276 276 275 275 274 274 273 272 272 271 271 270 270 269 269 268 269 270 271 272 273 274 274 275 276 276 275 274 273 272 272 272 272 273 272 272 272 273 275 276 277 277 278 278
269 269 269 269 269 270 270 270 270 270 270 270 271 271 271 271 272 272 273 274 274 274 275 275 275 276 277 277 278 278 278 278 278 279 279 279 279 279 278 278 277 276 276 275 274 274 273 272 271 270 270 269 269 268 268 268 268 268 268 269 270 272 273 275 276 277 276 274 272 271 271 272 272 273 273 273 273 274 275 276 277 277 277 277 277
271 271 271 270 270 270 270 270 270 270 270 270 271 271 271 272 272 272 273 273 274 275 276 276 276 276 276 277 278 278 279 279 279 280 280 280 280 280 279 279 278 277 276 276 275 274 272 271 270 270 269 269 268 267 267 267 267 267 268 268 270 271 272 274 275 276 275 274 272 272 273 273 273 273 274 276 278 279 279 278 278 277 276 276 276
273 273 273 272 272 272 271 271 271 271 271 271 271 271 271 272 272 272 273 273 274 274 275 276 276 277 277 277 277 277 278 279 280 280 281 281 281 280 280 280 279 278 277 276 275 274 273 272 270 270 269 268 268 267 266 266 266 266 267 268 269 270 272 272 273 273 272 272 272 273 274 274 274 275 276 278 279 280 279 277 276 275 275 275 275
273 273 273 273 273 273 272 272 272 272 272 272 272 272 272 272 272 273 273 273 273 274 274 274 275 276 277 277 277 278 278 278 279 279 280 280 281 281 280 280 279 278 277 276 274 273 272 271 270 269 269 268 268 267 266 265 265 265 266 267 268 270 271 271 271 270 270 270 271 272 273 275 277 279 279 279 278 277 276 275 274 274 273 272 272
272 272 272 272 272 272 272 272 272 272 272 272 272 273 273 273 273 273 273 273 273 273 274 274 275 275 276 277 277 278 278 278 279 279 280 280 280 280 279 278 278 277 276 275 274 272 272 271 270 270 269 268 267 266 265 264 264 264 264 265 266 268 269 269 269 268 269 270 272 273 275 278 280 281 281 280 279 276 275 274 273 272 270 269 270
271 271 271 271 272 272 272 272 272 272 272 272 273 273 273 273 273 273 273 273 273 274 274 275 275 275 276 276 277 277 278 278 279 279 280 280 280 279 278 277 277 276 275 274 273 272 271 271 270 269 268 266 265 265 265 265 264 264 264 264 265 265 266 267 267 267 268 271 273 275 277 277 278 278 278 277 276 275 274 273 271 269 269 269 270
270 270 270 271 271 271 271 272 272 272 272 272 273 273 273 273 273 273 273 274 274 275 275 275 275 275 276 276 277 278 278 279 280 280 281 281 280 279 278 277 275 274 274 273 272 271 270 269 268 268 266 265 264 264 264 264 264 264 264 264 264 264 265 265 266 267 270 272 274 275 275 274 273 273 273 271 271 270 270 269 268 268 269 270 271
268 269 269 270 270 271 271 272 272 272 272 272 273 273 273 273 273 273 274 274 275 275 275 275 276 276 276 277 278 279 279 280 281 281 281 280 279 279 278 276 275 274 273 271 269 268 267 267 266 266 265 263 262 262 262 263 263 263 263 264 264 265 265 266 267 268 270 271 271 271 272 272 271 270 269 268 267 267 266 266 267 267 268 270 271
269 269 270 270 271 271 272 272 272 273 273 273 273 273 273 273 273 273 274 274 275 275 276 276 276 277 278 278 279 280 280 281 282 282 281 280 279 278 277 276 275 273 271 270 268 267 266 265 265 264 264 263 261 260 261 262 263 263 263 263 264 264 264 265 265 266 267 267 268 269 271 271 270 269 269 267 265 264 264 265 265 267 268 269 271
270 271 271 272 272 272 273 273 273 274 274 274 274 273 273 273 274 274 274 275 275 276 276 277 277 278 278 279 280 280 281 281 282 281 280 279 278 277 275 274 274 272 270 268 267 266 265 264 264 263 262 261 260 260 261 263 264 264 264 264 264 263 263 264 264 265 266 267 267 268 269 269 268 268 267 265 263 262 262 262 264 265 267 269 270
271 271 272 272 273 273 273 273 273 274 274 274 274 274 274 274 274 274 275 275 275 276 276 277 278 278 279 280 280 280 281 281 282 281 280 279 278 276 274 273 273 271 269 267 266 265 264 263 263 262 261 261 260 261 263 264 265 265 264 264 264 264 264 264 264 265 265 266 266 266 267 267 267 266 264 263 261 260 260 261 262 264 266 267 269
271 272 272 272 272 272 273 273 273 273 273 273 274 274 274 274 274 274 275 275 275 276 277 277 278 279 279 280 280 280 281 281 281 281 280 279 278 277 275 274 273 272 271 269 267 266 265 264 263 262 261 261 261 262 263 264 264 264 263 263 263 263 263 263 263 264 264 264 265 265 265 265 264 263 262 260 259 258 258 259 261 263 265 266 267
271 272 272 272 272 272 273 273 273 273 273 273 273 274 274 274 274 275 275 275 276 276 277 278 278 279 279 280 280 281 281 282 282 281 281 280 279 278 277 275 274 273 272 271 269 267 266 265 264 263 263 262 262 261 261 261 261 261 260 260 260 261 261 261 262 263 263 264 264 263 263 262 260 259 258 257 256 256 256 257 259 261 263 264 264
271 272 272 272 273 273 273 273 273 274 274 274 274 274 274 275 275 275 275 276 276 277 277 278 279 279 280 280 281 282 282 282 283 283 283 282 281 280 278 277 276 275 273 271 269 268 266 264 263 262 261 260 258 257 256 257 258 258 259 259 259 260 261 262 262 262 262 262 262 261 260 258 257 256 255 254 254 254 254 256 258 260 261 262 262
271 272 273 274 274 274 274 274 274 274 274 274 274 274 275 275 275 276 276 277 277 277 278 279 279 280 281 282 283 284 284 284 284 284 284 283 282 281 279 278 276 275 273 272 269 267 264 263 261 260 259 258 257 257 257 257 258 259 260 260 260 260 260 261 261 260 260 260 260 260 259 257 256 254 253 251 251 252 253 255 257 259 260 261 262
273 274 275 275 275 275 276 276 275 275 275 275 275 275 275 276 276 276 277 278 278 279 280 281 282 282 282 283 283 284 285 285 284 284 284 283 282 281 279 278 275 273 272 270 268 266 264 262 261 260 259 258 258 258 258 257 257 258 259 260 259 259 259 260 260 260 260 260 260 260 259 258 256 255 252 250 249 250 252 254 256 258 259 261 262
275 275 276 276 276 277 276 276 276 276 276 275 275 276 276 277 277 278 279 280 281 282 283 283 284 284 284 284 284 284 285 285 284 283 283 282 281 280 279 277 275 273 271 269 267 265 264 262 261 259 258 257 256 255 255 255 256 257 259 259 259 258 258 259 260 261 261 260 260 260 259 258 256 254 251 249 249 249 251 253 255 258 259 261 261
Height
10592 10592 10593 10593 10593 10592 10592 10592 10592 10592 10591 10591 10592 10593 10594 10594 10595 10596 10596 10597 10598 10598 10599 10599 10601 10602 10603 10604 10604 10605 10606 10607 10607 10607 10608 10608 10608 10609 10609 10609 10610 10610 10610 10610 10610 10609 10608 10607 10606 10605 10604 10603 10602 10602 10602 10601 10600 10599 10598 10598 10597 10596 10595 10594 10593 10591 10590 10590 10589 10587 10585 10583 10581 10579 10578 10577 10578 10578 10577 10577 10575 10574 10573 10573 10573
10590 10590 10589 10589 10589 10589 10588 10588 10588 10588 10587 10587 10588 10589 10589 10589 10590 10590 10591 10592 10593 10594 10594 10595 10596 10596 10597 10598 10599 10599 10600 10601 10601 10601 10601 10602 10602 10602 10602 10603 10603 10603 10604 10604 10604 10603 10602 10602 10600 10599 10598 10597 10596 10596 10595 10594 10593 10592 10591 10590 10590 10589 10588 10587 10586 10584 10583 10582 10582 10580 10578 10577 10576 10574 10572 10571 10571 10571 10571 10571 10570 10568 10567 10567 10566
10585 10585 10585 10585 10585 10584 10584 10584 10584 10583 10583 10583 10584 10584 10583 10583 10584 10585 10586 10587 10587 10588 10589 10589 10590 10591 10592 10592 10593 10593 10594 10594 10594 10594 10595 10595 10595 10595 10596 10596 10596 10596 10597 10598 10598 10598 10597 10596 10595 10593 10592 10591 10590 10589 10588 10587 10586 10585 10583 10582 10581 10580 10579 10578 10577 10576 10575 10575 10574 10574 10572 10570 10568 10567 10566 10565 10565 10565 10565 10564 10563 10562 10561 10561 10560
10583 10580 10580 10579 10580 10581 10580 10579 10578 10578 10577 10577 10577 10578 10578 10578 10579 10580 10580 10581 10581 10582 10583 10584 10585 10585 10586 10586 10587 10587 10588 10588 10588 10588 10588 10588 10588 10589 10589 10589 10589 10589 10590 10590 10590 10590 10590 10589 10589 10588 10587 10585 10584 10583 10582 10581 10580 10578 10576 10574 10573 10572 10570 10569 10568 10567 10566 10566 10566 10567 10566 10564 10561 10560 10559 10559 10560 10560 10559 10558 10556 10555 10554 10554 10553
10581 10577 10574 10573 10574 10575 10574 10573 10573 10573 10572 10571 10572 10573 10573 10574 10575 10575 10575 10575 10576 10576 10577 10578 10579 10580 10580 10580 10581 10581 10582 10581 10581 10581 10582 10582 10582 10582 10582 10582 10582 10582 10582 10582 10582 10582 10582 10582 10582 10581 10580 10579 10578 10577 10576 10575 10574 10573 10571 10569 10567 10566 10564 10562 10561 10560 10559 10558 10557 10557 10558 10557 10555 10553 10552 10552 10552 10553 10553 10552 10550 10548 10547 10546 10545
10575 10572 10569 10568 10569 10569 10567 10566 10568 10568 10566 10567 10569 10570 10570 10570 10570 10570 10570 10570 10570 10571 10571 10572 10573 10574 10574 10575 10575 10576 10575 10575 10575 10575 10575 10575 10575 10576 10576 10576 10576 10575 10575 10575 10575 10575 10575 10575 10574 10574 10574 10573 10572 10571 10570 10569 10568 10567 10565 10563 10561 10560 10559 10557 10555 10553 10552 10551 10550 10548 10548 10548 10548 10547 10546 10544 10544 10545 10545 10545 10544 10542 10540 10539 10538
10571 10568 10566 10566 10566 10564 10561 10560 10562 10563 10562 10563 10565 10566 10566 10566 10565 10565 10565 10565 10566 10566 10566 10567 10568 10568 10569 10569 10570 10570 10569 10569 10568 10568 10568 10569 10569 10569 10569 10570 10569 10569 10569 10569 10569 10569 10568 10568 10567 10567 10567 10566 10565 10564 10562 10561 10560 10560 10559 10557 10554 10552 10551 10551 10549 10547 10545 10544 10543 10542 10540 10540 10539 10539 10538 10537 10536 10536 10536 10536 10535 10534 10533 10532 10531
10566 10564 10563 10563 10561 10559 10558 10558 10558 10558 10558 10558 10560 10561 10561 10561 10560 10560 10561 10561 10561 10560 10560 10561 10562 10562 10563 10563 10563 10563 10563 10562 10562 10561 10562 10562 10562 10563 10563 10563 10563 10562 10562 10561 10561 10561 10561 10560 10560 10559 10558 10558 10557 10556 10554 10553 10551 10551 10550 10549 10547 10545 10544 10544 10543 10541 10539 10538 10537 10535 10534 10533 10531 10530 10530 10529 10528 10528 10528 10527 10527 10526 10524 10524 10523
10559 10559 10558 10557 10556 10556 10555 10554 10553 10552 10552 10552 10554 10555 10555 10555 10555 10555 10555 10555 10555 10554 10554 10555 10556 10556 10556 10556 10556 10556 10556 10556 10556 10555 10555 10555 10555 10556 10556 10556 10555 10555 10554 10554 10554 10553 10553 10552 10551 10550 10550 10549 10549 10548 10547 10545 10543 10542 10541 10540 10539 10538 10537 10536 10535 10534 10533 10531 10530 10529 10527 10527 10526 10524 10523 10521 10521 10521 10520 10519 10519 10518 10517 10516 10515
10554 10554 10552 10551 10551 10551 10550 10549 10547 10547 10547 10547 10547 10548 10548 10549 10549 10549 10549 10549 10548 10549 10549 10549 10549 10550 10550 10549 10549 10549 10549 10550 10550 10549 10549 10549 10549 10549 10549 10548 10548 10547 10547 10547 10546 10546 10545 10544 10543 10542 10542 10541 10540 10540 10538 10537 10535 10534 10533 10532 10532 10531 10530 10529 10528 10527 10526 10524 10523 10521 10520 10520 10520 10519 10517 10516 10515 10514 10513 10512 10511 10510 10510 10509 10507
10547 10547 10545 10545 10546 10545 10544 10544 10544 10543 10542 10542 10542 10542 10542 10542 10543 10542 10542 10542 10542 10542 10542 10543 10543 10543 10543 10543 10543 10542 10542 10542 10542 10542 10542 10542 10542 10541 10541 10540 10539 10538 10538 10538 10538 10538 10538 10536 10535 10534 10534 10533 10532 10531 10530 10529 10528 10526 10525 10524 10523 10522 10522 10521 10520 10519 10518 10516 10515 10514 10513 10512 10512 10511 10510 10509 10508 10507 10506 10505 10504 10503 10502 10501 10500
10540 10541 10540 10541 10542 10542 10540 10540 10540 10538 10537 10537 10536 10536 10536 10535 10535 10535 10535 10535 10534 10534 10534 10535 10535 10535 10535 10536 10536 10535 10535 10534 10534 10534 10533 10533 10533 10532 10531 10530 10529 10528 10528 10528 10529 10529 10529 10528 10527 10527 10526 10526 10525 10524 10524 10522 10521 10520 10519 10517 10515 10514 10513 10512 10511 10510 10510 10509 10508 10506 10505 10504 10504 10504 10503 10503 10501 10500 10499 10498 10496 10495 10494 10493 10493
10535 10535 10535 10536 10537 10537 10536 10536 10535 10533 10532 10531 10531 10530 10530 10530 10530 10530 10528 10527 10527 10526 10526 10527 10527 10528 10528 10527 10527 10527 10526 10526 10525 10524 10524 10523 10523 10523 10522 10521 10520 10519 10518 10519 10519 10519 10518 10518 10518 10517 10517 10517 10517 10516 10516 10516 10515 10514 10512 10509 10507 10506 10504 10503 10502 10501 10500 10500 10500 10498 10497 10496 10495 10495 10495 10494 10493 10492 10491 10490 10488 10487 10486 10485 10485
10530 10529 10529 10530 10531 10531 10530 10531 10531 10529 10528 10527 10526 10525 10525 10524 10525 10525 10522 10520 10520 10519 10519 10520 10520 10520 10520 10520 10519 10518 10518 10517 10516 10515 10515 10514 10513 10513 10512 10511 10511 10510 10509 10509 10509 10509 10508 10508 10507 10506 10506 10507 10506 10506 10507 10507 10506 10505 10503 10501 10500 10497 10495 10494 10493 10491 10490 10489 10489 10488 10487 10487 10486 10485 10484 10484 10483 10482 10481 10481 10479 10478 10477 10477 10476
10523 10523 10523 10523 10523 10523 10523 10524 10525 10524 10523 10522 10521 10520 10519 10518 10518 10518 10516 10515 10514 10513 10512 10512 10513 10513 10513 10512 10512 10511 10510 10509 10508 10507 10505 10505 10504 10503 10502 10502 10501 10500 10500 10500 10500 10499 10498 10498 10496 10495 10495 10495 10493 10494 10495 10496 10495 10494 10491 10490 10490 10488 10486 10485 10484 10481 10479 10479 10478 10477 10477 10477 10476 10474 10474 10474 10473 10472 10471 10471 10470 10469 10468 10467 10467
10516 10516 10515 10515 10515 10515 10515 10516 10516 10516 10516 10516 10515 10512 10511 10511 10510 10510 10510 10509 10508 10506 10505 10505 10505 10505 10505 10504 10504 10503 10502 10501 10500 10499 10497 10496 10495 10495 10494 10493 10493 10492 10491 10491 10491 10490 10489 10488 10487 10486 10485 10484 10482 10482 10483 10483 10483 10482 10478 10477 10476 10476 10476 10475 10473 10471 10469 10468 10468 10468 10469 10469 10468 10466 10465 10465 10464 10464 10463 10462 10461 10460 10459 10458 10457
10508 10509 10508 10507 10506 10507 10508 10507 10506 10507 10509 10510 10508 10504 10502 10503 10503 10503 10503 10502 10501 10499 10498 10497 10497 10496 10496 10495 10494 10493 10492 10492 10491 10490 10488 10487 10486 10485 10484 10484 10484 10484 10483 10482 10482 10482 10481 10481 10480 10478 10477 10475 10473 10473 10473 10472 10472 10473 10471 10468 10466 10465 10465 10464 10463 10462 10458 10456 10458 10459 10460 10461 10460 10458 10457 10456 10456 10456 10455 10455 10453 10452 10451 10450 10449
10502 10501 10500 10498 10498 10499 10501 10500 10498 10499 10501 10500 10499 10497 10495 10495 10495 10495 10494 10494 10492 10491 10490 10489 10488 10488 10487 10486 10485 10484 10483 10482 10482 10481 10479 10478 10477 10476 10475 10474 10474 10473 10473 10472 10472 10472 10473 10472 10472 10471 10471 10469 10465 10464 10466 10465 10463 10463 10464 10462 10459 10458 10456 10454 10455 10455 10450 10448 10450 10451 10451 10451 10451 10450 10449 10448 10447 10447 10447 10446 10446 10445 10444 10443 10442
10494 10493 10492 10491 10491 10491 10493 10492 10491 10491 10491 10491 10490 10488 10486 10486 10486 10486 10485 10485 10484 10483 10482 10481 10480 10480 10479 10478 10478 10476 10474 10473 10473 10473 10471 10470 10469 10468 10467 10466 10464 10463 10462 10461 10461 10461 10462 10462 10461 10461 10462 10462 10459 10456 10457 10458 10455 10453 10453 10453 10452 10450 10446 10445 10446 10446 10443 10441 10443 10442 10442 10442 10441 10440 10440 10439 10438 10437 10436 10437 10437 10437 10437 10436 10435
10486 10486 10485 10485 10484 10484 10485 10485 10484 10484 10484 10483 10482 10479 10477 10476 10477 10477 10476 10476 10475 10474 10473 10472 10471 10471 10470 10470 10469 10468 10466 10464 10464 10463 10462 10461 10461 10460 10459 10458 10457 10454 10453 10453 10453 10453 10452 10452 10451 10450 10450 10451 10450 10447 10447 10448 10446 10443 10442 10442 10442 10440 10438 10437 10437 10436 10435 10434 10434 10434 10433 10433 10432 10431 10430 10430 10429 10426 10425 10426 10428 10428 10428 10428 10427
10478 10479 10478 10478 10478 10478 10478 10478 10477 10476 10476 10475 10474 10471 10469 10467 10467 10466 10467 10467 10467 10466 10466 10464 10463 10462 10461 10460 10460 10459 10458 10456 10455 10454 10453 10452 10451 10451 10451 10450 10448 10447 10447 10447 10446 10446 10444 10443 10442 10442 10441 10441 10439 10438 10437 10438 10437 10434 10431 10431 10431 10429 10427 10428 10428 10427 10426 10426 10425 10425 10425 10425 10424 10423 10421 10421 10420 10417 10416 10416 10418 10419 10419 10419 10418
10469 10470 10471 10471 10471 10470 10470 10470 10469 10467 10467 10466 10465 10463 10461 10459 10457 10456 10457 10458 10458 10457 10457 10456 10454 10453 10451 10451 10450 10449 10448 10447 10445 10444 10442 10441 10441 10440 10440 10440 10438 10437 10438 10439 10438 10437 10436 10434 10433 10432 10431 10431 10431 10430 10428 10427 10428 10426 10422 10420 10420 10419 10418 10417 10416 10417 10418 10418 10416 10416 10415 10415 10415 10414 10413 10412 10411 10409 10406 10406 10408 10410 10411 10410 10408
10460 10462 10462 10462 10462 10461 10460 10459 10458 10457 10456 10456 10455 10453 10452 10451 10449 10448 10448 10449 10449 10448 10447 10446 10445 10444 10442 10440 10439 10438 10438 10437 10436 10434 10432 10431 10429 10428 10428 10428 10427 10426 10428 10429 10428 10426 10425 10424 10423 10421 10420 10421 10421 10420 10418 10417 10417 10416 10413 10411 10410 10410 10408 10405 10404 10405 10407 10408 10408 10407 10406 10406 10406 10405 10404 10403 10402 10399 10397 10396 10399 10401 10401 10399 10399
10452 10453 10453 10452 10451 10450 10449 10448 10447 10446 10445 10444 10444 10443 10442 10441 10439 10439 10438 10438 10438 10438 10437 10437 10436 10435 10433 10432 10430 10428 10427 10427 10426 10424 10423 10422 10420 10419 10417 10417 10416 10415 10416 10418 10417 10416 10414 10414 10412 10410 10409 10410 10410 10409 10408 10407 10406 10405 10404 10402 10400 10399 10397 10394 10392 10394 10396 10396 10397 10397 10397 10397 10397 10397 10396 10395 10393 10390 10388 10388 10390 10391 10390 10389 10389
10443 10443 10442 10442 10441 10440 10439 10438 10437 10436 10435 10434 10433 10432 10431 10430 10429 10427 10426 10426 10426 10426 10425 10425 10424 10424 10423 10422 10420 10418 10416 10415 10414 10412 10411 10411 10411 10410 10408 10406 10405 10403 10404 10406 10406 10406 10405 10404 10403 10401 10400 10400 10400 10399 10398 10397 10395 10395 10394 10392 10390 10388 10386 10384 10383 10384 10384 10384 10385 10386 10387 10387 10388 10388 10387 10385 10383 10381 10381 10380 10380 10379 10379 10379 10379
10432 10432 10432 10431 10431 10430 10429 10428 10427 10426 10425 10424 10423 10422 10421 10419 10418 10417 10416 10415 10414 10413 10413 10412 10412 10412 10411 10410 10409 10407 10404 10402 10400 10399 10397 10397 10397 10398 10397 10396 10394 10392 10392 10393 10393 10393 10393 10392 10392 10391 10389 10389 10389 10388 10386 10385 10384 10383 10382 10380 10379 10377 10375 10374 10374 10374 10373 10372 10373 10374 10376 10377 10377 10377 10377 10375 10373 10372 10373 10372 10370 10369 10368 10368 10368
10421 10421 10420 10420 10420 10419 10419 10418 10417 10416 10415 10414 10412 10411 10410 10409 10408 10406 10404 10403 10402 10402 10401 10400 10400 10399 10399 10398 10397 10395 10393 10390 10387 10385 10384 10383 10382 10383 10383 10383 10381 10380 10380 10380 10380 10379 10379 10378 10378 10378 10377 10376 10375 10375 10373 10371 10370 10369 10367 10366 10365 10364 10363 10363 10363 10362 10361 10361 10362 10363 10364 10366 10366 10366 10366 10365 10363 10362 10362 10362 10361 10360 10358 10358 10358
10409 10409 10408 10408 10408 10408 10407 10407 10406 10405 10404 10403 10402 10401 10399 10398 10397 10395 10393 10392 10391 10390 10389 10389 10388 10387 10386 10385 10384 10383 10381 10378 10374 10373 10371 10369 10368 10367 10368 10369 10367 10366 10366 10366 10366 10366 10365 10364 10364 10363 10363 10362 10361 10360 10359 10357 10354 10353 10351 10350 10349 10349 10350 10351 10351 10351 10351 10351 10351 10352 10353 10354 10355 10355 10354 10353 10353 10352 10351 10351 10350 10350 10349 10348 10347
10397 10397 10397 10397 10396 10396 10396 10395 10395 10394 10393 10392 10390 10389 10387 10386 10385 10383 10381 10380 10379 10378 10377 10376 10374 10373 10373 10373 10372 10371 10370 10365 10361 10360 10359 10357 10355 10354 10355 10356 10355 10353 10352 10351 10352 10352 10351 10349 10349 10348 10348 10347 10347 10347 10345 10342 10339 10337 10336 10335 10334 10334 10334 10336 10338 10339 10340 10340 10341 10342 10342 10343 10343 10343 10343 10342 10342 10341 10340 10340 10340 10340 10339 10338 10337
10386 10385 10385 10385 10384 10384 10383 10383 10382 10381 10380 10379 10377 10375 10374 10373 10372 10371 10369 10367 10366 10366 10365 10364 10362 10360 10360 10359 10358 10358 10357 10354 10349 10346 10345 10344 10342 10341 10342 10343 10342 10340 10338 10336 10336 10337 10336 10334 10333 10333 10333 10333 10334 10333 10330 10327 10325 10324 10322 10320 10318 10318 10319 10322 10324 10326 10329 10329 10330 10331 10331 10331 10331 10331 10331 10331 10330 10329 10329 10329 10329 10329 10329 10328 10328
10373 10373 10373 10372 10371 10371 10370 10369 10369 10368 10367 10365 10363 10361 10359 10357 10356 10356 10356 10354 10352 10350 10350 10350 10349 10347 10347 10345 10342 10340 10339 10338 10335 10332 10331 10329 10327 10325 10326 10328 10328 10326 10323 10322 10321 10321 10321 10320 10319 10318 10318 10319 10319 10319 10317 10314 10312 10310 10308 10305 10303 10304 10306 10308 10310 10313 10316 10318 10318 10318 10318 10319 10319 10319 10318 10318 10318 10318 10318 10318 10318 10318 10318 10319 10319
10360 10360 10359 10359 10358 10357 10357 10356 10355 10354 10352 10351 10350 10349 10347 10343 10340 10338 10339 10341 10340 10337 10335 10333 10333 10332 10332 10331 10328 10325 10322 10319 10318 10317 10317 10316 10314 10310 10309 10311 10312 10312 10309 10307 10306 10307 10306 10306 10305 10305 10304 10304 10305 10305 10305 10304 10301 10296 10293 10291 10291 10291 10293 10294 10296 10300 10303 10305 10306 10306 10305 10306 10306 10306 10306 10306 10307 10308 10308 10308 10308 10308 10309 10309 10309
10347 10347 10346 10345 10344 10344 10343 10341 10340 10339 10337 10336 10335 10334 10333 10330 10327 10323 10321 10323 10325 10324 10321 10318 10316 10315 10315 10314 10313 10311 10308 10304 10302 10301 10301 10301 10300 10297 10295 10294 10295 10296 10294 10293 10292 10292 10292 10292 10292 10291 10291 10291 10291 10291 10292 10292 10289 10285 10282 10281 10279 10279 10281 10282 10284 10288 10292 10294 10294 10293 10293 10293 10293 10294 10295 10296 10297 10298 10297 10298 10299 10299 10299 10299 10298
10333 10332 10332 10331 10330 10329 10328 10326 10325 10323 10321 10320 10319 10318 10317 10315 10314 10311 10308 10305 10304 10305 10305 10304 10301 10299 10298 10297 10296 10295 10293 10290 10288 10286 10285 10284 10284 10283 10282 10281 10280 10280 10280 10279 10278 10278 10278 10278 10278 10278 10277 10277 10278 10278 10277 10277 10275 10274 10273 10271 10268 10267 10268 10270 10273 10277 10282 10284 10283 10281 10280 10280 10282 10284 10285 10286 10287 10288 10288 10288 10289 10289 10289 10289 10288
10318 10317 10316 10316 10315 10314 10312 10311 10309 10307 10306 10305 10304 10302 10301 10300 10299 10298 10295 10291 10287 10286 10287 10287 10286 10285 10284 10282 10280 10278 10276 10275 10274 10273 10272 10271 10269 10267 10267 10267 10267 10267 10266 10266 10265 10264 10264 10264 10264 10264 10264 10264 10265 10265 10264 10264 10263 10262 10261 10259 10258 10257 10258 10260 10262 10266 10270 10271 10269 10268 10268 10270 10273 10274 10274 10274 10276 10279 10280 10281 10281 10280 10279 10278 10277
10301 10301 10301 10300 10299 10298 10296 10295 10294 10293 10292 10291 10289 10288 10287 10286 10285 10283 10281 10278 10275 10272 10270 10270 10270 10270 10270 10269 10266 10264 10262 10260 10259 10258 10258 10258 10257 10255 10253 10253 10254 10254 10253 10252 10251 10251 10250 10250 10250 10251 10251 10252 10252 10252 10252 10252 10252 10251 10249 10248 10248 10248 10250 10251 10253 10256 10257 10257 10256 10256 10258 10260 10263 10264 10265 10265 10267 10269 10271 10272 10271 10270 10269 10268 10267
10286 10286 10286 10284 10283 10282 10281 10280 10279 10278 10277 10276 10275 10274 10273 10272 10271 10269 10267 10265 10263 10260 10258 10256 10254 10254 10255 10255 10255 10253 10250 10248 10247 10246 10245 10245 10244 10244 10242 10241 10240 10240 10240 10239 10239 10238 10237 10237 10238 10239 10239 10240 10240 10240 10240 10240 10241 10240 10239 10238 10238 10239 10241 10243 10245 10247 10246 10245 10245 10247 10249 10251 10253 10256 10258 10259 10260 10260 10261 10262 10262 10260 10259 10258 10257
10274 10273 10272 10271 10270 10269 10268 10267 10266 10265 10264 10262 10261 10261 10260 10259 10258 10256 10254 10252 10250 10248 10247 10245 10243 10241 10240 10240 10241 10241 10239 10238 10236 10235 10235 10234 10233 10232 10231 10229 10228 10228 10228 10228 10228 10227 10226 10225 10225 10227 10229 10230 10229 10228 10228 10229 10229 10229 10229 10228 10228 10230 10231 10233 10235 10236 10236 10235 10236 10239 10241 10242 10245 10248 10250 10251 10252 10252 10252 10253 10252 10252 10251 10249 10248
10263 10261 10260 10259 10258 10257 10256 10254 10253 10252 10252 10251 10250 10249 10248 10247 10246 10244 10242 10240 10238 10237 10236 10234 10233 10231 10229 10228 10228 10228 10227 10227 10226 10225 10224 10224 10223 10222 10220 10218 10217 10217 10217 10216 10216 10216 10215 10214 10215 10217 10219 10219 10217 10215 10215 10217 10218 10219 10220 10220 10220 10221 10221 10222 10224 10226 10226 10226 10228 10231 10234 10236 10238 10239 10241 10242 10242 10243 10243 10243 10243 10243 10242 10241 10241
10251 10250 10249 10248 10247 10245 10244 10243 10242 10241 10241 10240 10239 10238 10237 10236 10234 10233 10231 10229 10227 10227 10226 10224 10222 10220 10219 10218 10217 10216 10216 10216 10215 10215 10214 10214 10213 10211 10209 10208 10208 10207 10206 10206 10206 10205 10204 10204 10204 10206 10208 10208 10207 10205 10205 10206 10208 10209 10211 10212 10212 10212 10213 10214 10215 10216 10217 10218 10221 10225 10228 10230 10231 10232 10233 10234 10235 10235 10235 10235 10234 10234 10234 10234 10234
10241 10239 10238 10237 10236 10235 10233 10232 10232 10231 10231 10230 10229 10228 10226 10225 10223 10221 10220 10219 10218 10217 10216 10214 10212 10211 10209 10208 10207 10207 10206 10205 10205 10205 10205 10204 10202 10200 10198 10198 10198 10198 10197 10197 10196 10194 10194 10194 10194 10195 10196 10197 10197 10196 10196 10197 10198 10200 10202 10202 10203 10204 10205 10207 10208 10209 10210 10213 10216 10218 10220 10222 10224 10226 10227 10228 10229 10228 10227 10226 10226 10226 10226 10227 10228
10230 10229 10228 10228 10226 10225 10224 10223 10222 10221 10221 10220 10220 10218 10217 10215 10213 10212 10211 10209 10208 10207 10206 10204 10203 10201 10200 10200 10199 10198 10197 10196 10196 10196 10196 10194 10193 10190 10188 10187 10189 10189 10189 10187 10186 10185 10185 10185 10185 10185 10185 10186 10187 10187 10187 10188 10190 10192 10193 10194 10196 10197 10199 10201 10202 10203 10205 10207 10209 10211 10212 10214 10216 10218 10220 10221 10221 10220 10219 10218 10219 10219 10220 10221 10222
10221 10220 10219 10218 10217 10216 10215 10213 10213 10212 10211 10211 10210 10209 10207 10205 10204 10203 10202 10200 10199 10198 10196 10195 10194 10193 10192 10191 10191 10190 10188 10187 10187 10187 10186 10185 10184 10182 10180 10178 10179 10180 10180 10177 10176 10176 10177 10176 10176 10176 10177 10178 10179 10179 10179 10180 10182 10184 10186 10187 10189 10191 10192 10194 10195 10196 10198 10200 10202 10203 10205 10206 10208 10210 10212 10213 10212 10212 10211 10211 10212 10212 10213 10214 10216
10211 10211 10210 10209 10208 10207 10206 10205 10204 10203 10202 10201 10200 10199 10197 10196 10196 10195 10193 10192 10191 10189 10188 10187 10186 10185 10184 10183 10183 10182 10180 10180 10179 10179 10178 10177 10176 10175 10173 10170 10170 10171 10171 10170 10168 10168 10169 10169 10169 10169 10169 10170 10170 10171 10171 10173 10175 10177 10179 10181 10182 10183 10185 10186 10188 10189 10191 10193 10195 10196 10198 10199 10201 10203 10204 10204 10204 10204 10204 10205 10205 10206 10207 10208 10209
10203 10202 10201 10200 10199 10198 10197 10196 10195 10194 10193 10193 10192 10190 10189 10188 10188 10187 10185 10184 10183 10182 10180 10179 10178 10178 10177 10176 10175 10174 10173 10172 10172 10171 10170 10169 10167 10166 10165 10163 10162 10162 10162 10162 10161 10161 10162 10162 10162 10162 10162 10163 10164 10164 10165 10167 10169 10170 10172 10173 10174 10176 10177 10179 10180 10182 10184 10185 10187 10189 10191 10192 10194 10195 10196 10197 10197 10197 10198 10198 10198 10199 10201 10202 10203
10194 10194 10193 10192 10191 10190 10189 10188 10187 10186 10185 10184 10184 10182 10181 10181 10180 10179 10178 10177 10176 10174 10173 10173 10172 10171 10170 10169 10168 10167 10166 10165 10164 10163 10162 10161 10159 10158 10157 10156 10155 10154 10154 10154 10154 10154 10154 10155 10155 10155 10156 10157 10158 10159 10160 10161 10162 10163 10164 10166 10167 10168 10170 10171 10173 10174 10176 10178 10180 10182 10184 10185 10187 10188 10189 10189 10190 10190 10191 10191 10192 10193 10195 10196 10197
10186 10185 10185 10184 10183 10182 10181 10180 10179 10178 10177 10177 10176 10175 10174 10173 10173 10172 10171 10170 10169 10168 10167 10166 10165 10164 10163 10161 10160 10160 10159 10158 10157 10156 10154 10153 10152 10151 10150 10149 10148 10147 10147 10147 10147 10147 10148 10148 10148 10149 10150 10151 10153 10154 10154 10154 10154 10155 10156 10158 10159 10160 10162 10164 10166 10168 10169 10171 10172 10175 10177 10178 10180 10181 10182 10182 10183 10183 10184 10185 10186 10187 10189 10191 10192
10178 10177 10177 10176 10175 10174 10174 10173 10172 10171 10170 10169 10169 10168 10167 10167 10166 10165 10164 10163 10162 10161 10160 10159 10159 10157 10156 10155 10153 10153 10152 10151 10150 10149 10147 10146 10145 10144 10144 10143 10142 10141 10141 10141 10141 10141 10141 10141 10142 10143 10144 10145 10146 10146 10146 10146 10146 10147 10149 10151 10153 10154 10156 10157 10159 10161 10163 10164 10165 10167 10169 10171 10172 10174 10175 10175 10176 10177 10178 10178 10180 10181 10183 10184 10186
10171 10170 10169 10168 10168 10167 10166 10165 10165 10164 10163 10162 10162 10161 10161 10160 10159 10158 10157 10156 10155 10154 10154 10153 10152 10151 10150 10148 10147 10146 10145 10145 10144 10143 10141 10140 10139 10138 10138 10137 10137 10136 10135 10135 10135 10135 10135 10135 10135 10136 10137 10138 10139 10140 10140 10141 10141 10142 10143 10145 10147 10149 10150 10151 10153 10154 10156 10157 10159 10160 10162 10164 10165 10167 10168 10169 10170 10171 10171 10172 10173 10175 10176 10178 10180
10164 10163 10162 10161 10160 10160 10159 10158 10157 10157 10156 10155 10155 10154 10154 10153 10153 10152 10151 10150 10149 10148 10147 10147 10146 10145 10144 10143 10142 10140 10139 10138 10137 10137 10136 10134 10133 10132 10132 10132 10132 10131 10130 10130 10130 10130 10130 10130 10130 10130 10131 10132 10134 10135 10136 10136 10137 10137 10138 10140 10142 10143 10144 10145 10146 10148 10149 10151 10152 10154 10156 10157 10159 10160 10162 10163 10164 10165 10165 10166 10167 10168 10170 10172 10174
10157 10156 10155 10154 10154 10153 10152 10152 10151 10150 10149 10149 10148 10148 10147 10146 10146 10145 10145 10143 10142 10142 10141 10140 10139 10138 10138 10137 10136 10135 10134 10133 10132 10131 10130 10129 10129 10128 10127 10127 10126 10126 10125 10125 10125 10125 10125 10125 10125 10125 10126 10127 10128 10129 10130 10131 10131 10132 10133 10135 10137 10138 10140 10140 10141 10142 10143 10145 10147 10148 10150 10151 10153 10154 10155 10156 10157 10158 10159 10160 10161 10162 10164 10166 10169